• In Lithuania
  • List of Countries
  • For 7 days
  • Water Temperature
  • Satellite Maps
  • Weather Map
  • Weather Widgets
  • user-avatar
    Login

    Hourly Weather Cachungo

    Today, 21 February, Wednesday

    Time Temperature Precipitation Wind Pressure Humidity
    00:00 +26°C° 0 mm 4 mps 755 mmHg 40%
    01:00 +25°C° 0 mm 4 mps 755 mmHg 40%
    02:00 +25°C° 0 mm 4 mps 755 mmHg 41%
    03:00 +24°C° 0 mm 3 mps 755 mmHg 40%
    04:00 +24°C° 0 mm 3 mps 755 mmHg 40%
    05:00 +24°C° 0 mm 3 mps 755 mmHg 39%
    06:00 +25°C° 0 mm 3 mps 755 mmHg 36%
    07:00 +26°C° 0 mm 3 mps 756 mmHg 34%
    08:00 +27°C° 0 mm 3 mps 756 mmHg 31%
    09:00 +30°C° 0 mm 3 mps 756 mmHg 26%
    10:00 +34°C° 0 mm 3 mps 756 mmHg 21%
    11:00 +37°C° 0 mm 3 mps 756 mmHg 16%
    12:00 +39°C° 0 mm 3 mps 755 mmHg 15%
    13:00 +40°C° 0 mm 3 mps 754 mmHg 14%
    14:00 +42°C° 0 mm 3 mps 754 mmHg 13%
    15:00 +41°C° 0 mm 4 mps 753 mmHg 15%
    16:00 +40°C° 0 mm 4 mps 753 mmHg 18%
    17:00 +39°C° 0 mm 5 mps 753 mmHg 20%
    18:00 +35°C° 0 mm 5 mps 753 mmHg 26%
    19:00 +33°C° 0 mm 5 mps 754 mmHg 31%
    20:00 +29°C° 0 mm 5 mps 754 mmHg 37%
    21:00 +28°C° 0 mm 5 mps 754 mmHg 38%
    22:00 +27°C° 0 mm 5 mps 754 mmHg 40%
    23:00 +27°C° 0 mm 5 mps 755 mmHg 42%

    Tomorrow, 22 February, Thursday

    Time Temperature Precipitation Wind Pressure Humidity
    00:00 +26°C° 0 mm 5 mps 755 mmHg 41%
    01:00 +26°C° 0 mm 5 mps 754 mmHg 40%
    02:00 +26°C° 0 mm 5 mps 754 mmHg 40%
    03:00 +25°C° 0 mm 4 mps 754 mmHg 40%
    04:00 +25°C° 0 mm 4 mps 754 mmHg 40%
    05:00 +24°C° 0 mm 3 mps 754 mmHg 41%
    06:00 +25°C° 0 mm 3 mps 754 mmHg 39%
    07:00 +25°C° 0 mm 3 mps 755 mmHg 38%
    08:00 +26°C° 0 mm 3 mps 755 mmHg 36%
    09:00 +29°C° 0 mm 3 mps 756 mmHg 31%
    10:00 +33°C° 0 mm 3 mps 756 mmHg 26%
    11:00 +35°C° 0 mm 3 mps 756 mmHg 21%
    12:00 +36°C° 0 mm 3 mps 755 mmHg 21%
    13:00 +37°C° 0 mm 4 mps 754 mmHg 20%
    14:00 +39°C° 0 mm 5 mps 753 mmHg 20%
    15:00 +37°C° 0 mm 5 mps 753 mmHg 21%
    16:00 +36°C° 0 mm 5 mps 753 mmHg 23%
    17:00 +35°C° 0 mm 6 mps 753 mmHg 25%
    18:00 +33°C° 0 mm 6 mps 753 mmHg 29%
    19:00 +30°C° 0 mm 5 mps 754 mmHg 33%
    20:00 +27°C° 0 mm 5 mps 754 mmHg 37%
    21:00 +26°C° 0 mm 5 mps 754 mmHg 40%
    22:00 +25°C° 0 mm 5 mps 755 mmHg 43%
    23:00 +23°C° 0 mm 5 mps 755 mmHg 47%

    Day after tomorrow, 23 February, Friday

    Time Temperature Precipitation Wind Pressure Humidity
    00:00 +22°C° 0 mm 5 mps 755 mmHg 48%
    01:00 +22°C° 0 mm 5 mps 754 mmHg 50%
    02:00 +21°C° 0 mm 5 mps 754 mmHg 51%
    03:00 +21°C° 0 mm 4 mps 754 mmHg 53%
    04:00 +21°C° 0 mm 4 mps 754 mmHg 54%
    05:00 +20°C° 0 mm 4 mps 754 mmHg 56%
    06:00 +21°C° 0 mm 3 mps 754 mmHg 55%
    07:00 +22°C° 0 mm 3 mps 755 mmHg 53%
    08:00 +22°C° 0 mm 3 mps 756 mmHg 51%
    09:00 +26°C° 0 mm 3 mps 756 mmHg 44%
    10:00 +29°C° 0 mm 3 mps 756 mmHg 37%
    11:00 +33°C° 0 mm 3 mps 756 mmHg 29%
    12:00 +34°C° 0 mm 4 mps 755 mmHg 28%
    13:00 +35°C° 0 mm 5 mps 755 mmHg 27%
    14:00 +36°C° 0 mm 5 mps 754 mmHg 26%
    15:00 +35°C° 0 mm 5 mps 754 mmHg 28%
    16:00 +33°C° 0 mm 6 mps 754 mmHg 31%
    17:00 +32°C° 0 mm 6 mps 754 mmHg 33%
    18:00 +29°C° 0 mm 6 mps 755 mmHg 38%
    19:00 +27°C° 0 mm 5 mps 755 mmHg 43%
    20:00 +25°C° 0 mm 5 mps 756 mmHg 48%
    21:00 +23°C° 0 mm 4 mps 756 mmHg 50%
    22:00 +22°C° 0 mm 4 mps 756 mmHg 52%
    23:00 +21°C° 0 mm 4 mps 757 mmHg 54%

    24 February, Saturday

    Time Temperature Precipitation Wind Pressure Humidity
    00:00 +21°C° 0 mm 4 mps 756 mmHg 57%
    01:00 +21°C° 0 mm 4 mps 756 mmHg 60%
    02:00 +20°C° 0 mm 4 mps 755 mmHg 62%
    03:00 +20°C° 0 mm 4 mps 755 mmHg 64%
    04:00 +20°C° 0 mm 4 mps 755 mmHg 66%
    05:00 +19°C° 0 mm 4 mps 756 mmHg 68%
    06:00 +20°C° 0 mm 4 mps 756 mmHg 65%
    07:00 +21°C° 0 mm 3 mps 757 mmHg 61%
    08:00 +21°C° 0 mm 3 mps 757 mmHg 57%
    09:00 +25°C° 0 mm 3 mps 757 mmHg 47%
    10:00 +28°C° 0 mm 3 mps 757 mmHg 37%
    11:00 +31°C° 0 mm 2 mps 757 mmHg 27%
    12:00 +33°C° 0 mm 3 mps 756 mmHg 26%
    13:00 +34°C° 0 mm 3 mps 756 mmHg 24%
    14:00 +36°C° 0 mm 3 mps 755 mmHg 23%
    15:00 +35°C° 0 mm 4 mps 755 mmHg 26%
    16:00 +34°C° 0 mm 4 mps 755 mmHg 29%
    17:00 +33°C° 0 mm 5 mps 754 mmHg 32%
    18:00 +30°C° 0 mm 5 mps 755 mmHg 37%
    19:00 +28°C° 0 mm 5 mps 756 mmHg 42%
    20:00 +26°C° 0 mm 5 mps 756 mmHg 48%
    21:00 +25°C° 0 mm 4 mps 756 mmHg 49%
    22:00 +23°C° 0 mm 4 mps 757 mmHg 50%
    23:00 +22°C° 0 mm 4 mps 757 mmHg 51%

    25 February, Sunday

    Time Temperature Precipitation Wind Pressure Humidity
    00:00 +22°C° 0 mm 4 mps 756 mmHg 52%
    01:00 +21°C° 0 mm 4 mps 756 mmHg 53%
    02:00 +21°C° 0 mm 4 mps 756 mmHg 54%
    03:00 +21°C° 0 mm 4 mps 756 mmHg 56%
    04:00 +20°C° 0 mm 4 mps 756 mmHg 57%
    05:00 +20°C° 0 mm 4 mps 756 mmHg 59%
    06:00 +21°C° 0 mm 4 mps 757 mmHg 56%
    07:00 +22°C° 0 mm 4 mps 757 mmHg 54%
    08:00 +22°C° 0 mm 3 mps 758 mmHg 51%
    09:00 +27°C° 0 mm 3 mps 758 mmHg 43%
    10:00 +30°C° 0 mm 2 mps 758 mmHg 34%
    11:00 +34°C° 0 mm 2 mps 758 mmHg 26%
    12:00 +35°C° 0 mm 3 mps 757 mmHg 25%
    13:00 +36°C° 0 mm 3 mps 756 mmHg 24%
    14:00 +37°C° 0 mm 4 mps 756 mmHg 22%
    15:00 +36°C° 0 mm 4 mps 756 mmHg 25%
    16:00 +35°C° 0 mm 5 mps 756 mmHg 28%
    17:00 +34°C° 0 mm 6 mps 756 mmHg 30%
    18:00 +32°C° 0 mm 5 mps 756 mmHg 34%
    19:00 +28°C° 0 mm 5 mps 757 mmHg 38%
    20:00 +26°C° 0 mm 5 mps 757 mmHg 42%
    21:00 +25°C° 0 mm 5 mps 758 mmHg 44%
    22:00 +25°C° 0 mm 5 mps 758 mmHg 46%
    23:00 +23°C° 0 mm 5 mps 758 mmHg 47%

    26 February, Monday

    Time Temperature Precipitation Wind Pressure Humidity
    00:00 +22°C° 0 mm 5 mps 757 mmHg 49%
    01:00 +22°C° 0 mm 5 mps 757 mmHg 51%
    02:00 +22°C° 0 mm 5 mps 757 mmHg 52%
    03:00 +21°C° 0 mm 5 mps 757 mmHg 53%
    04:00 +21°C° 0 mm 5 mps 757 mmHg 54%
    05:00 +21°C° 0 mm 4 mps 757 mmHg 55%
    06:00 +21°C° 0 mm 4 mps 758 mmHg 52%
    07:00 +22°C° 0 mm 4 mps 758 mmHg 50%
    08:00 +23°C° 0 mm 4 mps 758 mmHg 47%
    09:00 +26°C° 0 mm 4 mps 758 mmHg 41%
    10:00 +28°C° 0 mm 4 mps 758 mmHg 34%
    11:00 +31°C° 0 mm 3 mps 758 mmHg 28%
    12:00 +33°C° 0 mm 3 mps 757 mmHg 26%
    13:00 +35°C° 0 mm 3 mps 756 mmHg 24%
    14:00 +36°C° 0 mm 3 mps 756 mmHg 22%
    15:00 +36°C° 0 mm 3 mps 755 mmHg 23%
    16:00 +36°C° 0 mm 3 mps 755 mmHg 23%
    17:00 +35°C° 0 mm 4 mps 755 mmHg 24%
    18:00 +33°C° 0 mm 3 mps 755 mmHg 28%
    19:00 +30°C° 0 mm 3 mps 756 mmHg 32%
    20:00 +29°C° 0 mm 3 mps 756 mmHg 36%
    21:00 +28°C° 0 mm 3 mps 756 mmHg 38%
    22:00 +27°C° 0 mm 4 mps 756 mmHg 39%
    23:00 +27°C° 0 mm 4 mps 756 mmHg 40%
    Show more